Other Public Products
Issued by NWS Charleston, SC

Current Version | Previous Version | Text Only | Print | Product List | Glossary Off
Versions: 1 2 3 4 5 6 7 8 9 10 11 12 13 14 15 16 17 18 19 20 21 22 23 24 25 26 27 28 29 30 31 32 33 34 35 36 37 38 39 40 41 42 43 44 45 46 47 48 49 50
000 FPUS82 KCHS 160413 OPUCHS TEST...KCHS/KSAV Gateway Observations...TEST National Weather Service Charleston SC 1100 PM EST MON JAN 15 2018 NOTE: "fair" indicates few or no clouds below 12,000 feet with no significant weather and/or obstructions to visibility. SCZ050-WAZ558-NCZ071-TXZ119-213-PAZ071-DCZ001-FLZ074-172-MI076- NYZ176-178-MAZ016-IL014-TNZ027-NJZ106-GAZ044-MD014-160500- ...Gateway Observations for Charleston International... CITY SKY/WX TMP DP RH WIND PRES REMARKS Chas Airport FAIR 34 21 59 NE3 30.46F Seattle CLOUDY 53 42 66 S8 29.91R Charlotte FAIR 27 15 61 CALM 30.46R Dallas DFW LGTSLEET 33 18 53 N25G32 30.54R WCI 20 Dallas Love LGTSLEET 32 18 56 N22G35 30.56R WCI 19 Philladelphia CLOUDY 29 22 75 NE3 30.50S Wash National CLOUDY 31 27 85 S5 30.51R WCI 26 Baltimore CLOUDY 28 21 75 CALM 30.48F Miami CLOUDY 65 60 84 N7 30.26S Detroit LGT SNOW 22 19 89 SW8 30.28S FOG WCI 12 Newark MOCLDY 22 16 78 N6 30.52S WCI 14 Laguardia MOCLDY 25 16 68 E8 30.51F WCI 16 J F K FAIR 23 17 78 NE7 30.52F WCI 15 Boston Logan CLOUDY 20 9 62 NW12 30.55F WCI 8 Ft. Lauderdale CLOUDY 67 57 70 NE13G23 30.26R Chicago O`Hare LGT SNOW 12 7 80 SW10 30.30R WCI -1 Chicago Midway LGT SNOW 10 5 80 W15 30.33R WCI -7 Houston Bush MOCLDY 55 47 74 SE13 30.32S Houston Hobby CLOUDY 54 49 83 E6 30.32S Nashville CLOUDY 33 25 72 N7G20 30.42R WCI 27 Atlanta FAIR 37 25 61 SE3 30.41R $$ GAZ044-118-TXZ119-213-NCZ071-DCZ001-MDZ014-506-PAZ021-071-NJZ106- NYZ176-178-MAZ106-OHZ011-021-055-MIZ076-KYZ091-ILZ014-INZ047- MNZ060-ONZ431-160500- ...Gateway Observations for Savannah International... CITY SKY/WX TMP DP RH WIND PRES REMARKS Savannah Arpt FAIR 35 26 69 CALM 30.47S Atlanta FAIR 37 25 61 SE3 30.41R Charlotte FAIR 27 15 61 CALM 30.46R Dallas DFW LGTSLEET 33 18 53 N25G32 30.54R WCI 20 Houston Bush MOCLDY 55 47 74 SE13 30.32S Wash National CLOUDY 31 27 85 S5 30.51R WCI 26 Wash Dulles CLOUDY 25 23 92 CALM 30.48R Baltimore CLOUDY 28 21 75 CALM 30.48F Philadelphia CLOUDY 29 22 75 NE3 30.50S Newark MOCLDY 22 16 78 N6 30.52S WCI 14 Laguardia MOCLDY 25 16 68 E8 30.51F WCI 16 J F K FAIR 23 17 78 NE7 30.52F WCI 15 Boston CLOUDY 20 9 62 NW12 30.55F WCI 8 Pittsburg MOCLDY 24 24 100 CALM 30.28R Akron LGT SNOW 26 22 84 SW7 30.26S VSB 1 WCI 18 Cleveland CLOUDY 27 22 81 SW10 30.30S WCI 17 Cincinnati LGT SNOW 19 16 88 W17 30.37R FOG WCI 4 Columbus LGT SNOW 26 26 100 SW5 30.33R WCI 20 Detroit LGT SNOW 22 19 89 SW8 30.28S FOG WCI 12 Chicago O`Hare LGT SNOW 12 7 80 SW10 30.30R WCI -1 Minneapolis MOCLDY 2 -4 76 NW15 30.56R WCI -17 Indianapolis MOCLDY 7 1 76 W16 30.43R WCI -11 Toronto Canada FLURRIES 18 14 86 NE10 30.31F WCI 6 $$

USA.gov is the U.S. government's official web portal to all federal, state and local government web resources and services.